{"data":{"norad_id":57738,"epoch":"2026-09-20T02:44:08.021472Z","epoch_age_seconds":164441,"freshness":"FRESH","line1":"1 57738U 23131G   26263.11398173  .00000384  00000+0  23493-4 0  9991","line2":"2 57738  43.0013 154.2369 0001590 270.2434  89.8235 15.27577520169653","mean_motion":15.2757752,"eccentricity":0.000159,"inclination_deg":43.0013,"raan_deg":154.2369,"arg_perigee_deg":270.2434,"mean_anomaly_deg":89.8235,"bstar":2.3493e-5,"rev_number":16965,"period_min":94.266901754354,"perigee_km":481.96559229187,"apogee_km":484.14745183188,"semimajor_km":6861.1935220619,"source":"CELESTRAK","updated_at":"2026-09-21T09:00:33.679408Z"}}